GLO1615 SBRF-SBSP

Flight info

Callsign GLO1615
Flight time N/A
Altitude 38000
Route BUTOB1A GAVAK UZ30 ENTIT ORESU1A
Aircraft B738/M-SDFGIKLORWXY/LB1

Departure

Time 2026-04-28 16:17
Airport Recife/Guararapes - Gilberto Freyre International Airport (SBRF)

Arrival

Time N/A
Airport Congonhas–Deputado Freitas Nobre Airport (SBSP)
Time Latitude Longitude Altitude Speed Heading
2026-04-28 15:58 -8.13088 -34.91927 42 ft 0 kts 71°
2026-04-28 16:06 -8.13090 -34.91931 44 ft 3 kts 71°
2026-04-28 16:06 -8.13100 -34.91957 45 ft 4 kts 63°
2026-04-28 16:06 -8.13113 -34.91980 41 ft 4 kts 50°
2026-04-28 16:07 -8.13133 -34.91997 44 ft 4 kts 13°
2026-04-28 16:07 -8.13147 -34.91997 44 ft 1 kts 342°
2026-04-28 16:07 -8.13150 -34.91996 51 ft 0 kts 342°
2026-04-28 16:09 -8.13132 -34.92002 44 ft 4 kts 342°
2026-04-28 16:10 -8.13079 -34.92020 45 ft 4 kts 341°
2026-04-28 16:10 -8.13047 -34.92031 47 ft 5 kts 341°
2026-04-28 16:10 -8.12958 -34.92060 48 ft 9 kts 342°
2026-04-28 16:11 -8.12803 -34.92110 47 ft 14 kts 341°
2026-04-28 16:11 -8.12630 -34.92167 48 ft 13 kts 341°
2026-04-28 16:12 -8.12467 -34.92222 47 ft 12 kts 343°
2026-04-28 16:12 -8.12388 -34.92248 46 ft 12 kts 342°
2026-04-28 16:13 -8.12261 -34.92291 46 ft 11 kts 340°
2026-04-28 16:13 -8.12187 -34.92314 44 ft 12 kts 343°
2026-04-28 16:13 -8.12022 -34.92367 40 ft 13 kts 340°
2026-04-28 16:14 -8.11860 -34.92422 40 ft 12 kts 342°
2026-04-28 16:14 -8.11706 -34.92475 39 ft 11 kts 340°
2026-04-28 16:15 -8.11570 -34.92544 43 ft 11 kts 319°
2026-04-28 16:15 -8.11516 -34.92593 44 ft 10 kts 318°
2026-04-28 16:15 -8.11462 -34.92641 44 ft 10 kts 318°
2026-04-28 16:16 -8.11548 -34.92677 43 ft 16 kts 162°
2026-04-28 16:16 -8.11923 -34.92553 42 ft 96 kts 161°
2026-04-28 16:17 -8.13935 -34.91917 301 ft 185 kts 160°
2026-04-28 16:17 -8.15170 -34.91540 1188 ft 187 kts 162°
2026-04-28 16:17 -8.16475 -34.91137 1833 ft 210 kts 170°
2026-04-28 16:17 -8.17966 -34.91469 2321 ft 235 kts 213°
2026-04-28 16:18 -8.19005 -34.92843 2824 ft 266 kts 246°
2026-04-28 16:18 -8.19584 -34.94652 3624 ft 274 kts 250°
2026-04-28 16:18 -8.20150 -34.96501 4436 ft 276 kts 249°
2026-04-28 16:18 -8.20745 -34.98357 5276 ft 280 kts 249°
2026-04-28 16:19 -8.21362 -35.00235 6042 ft 285 kts 249°
2026-04-28 16:19 -8.22003 -35.02137 6868 ft 286 kts 248°
2026-04-28 16:19 -8.22654 -35.04034 7574 ft 291 kts 249°
2026-04-28 16:19 -8.23316 -35.05973 8337 ft 296 kts 249°
2026-04-28 16:20 -8.23996 -35.07947 9142 ft 300 kts 249°
2026-04-28 16:20 -8.24694 -35.09957 9942 ft 305 kts 248°
2026-04-28 16:20 -8.25405 -35.11996 10692 ft 310 kts 249°
2026-04-28 16:20 -8.26125 -35.14063 11422 ft 313 kts 249°
2026-04-28 16:21 -8.26910 -35.16134 12108 ft 317 kts 240°
2026-04-28 16:21 -8.28177 -35.17955 12815 ft 319 kts 229°
2026-04-28 16:21 -8.29591 -35.19699 13608 ft 323 kts 228°
2026-04-28 16:21 -8.31039 -35.21456 14243 ft 327 kts 228°
2026-04-28 16:22 -8.32501 -35.23232 14835 ft 331 kts 229°
2026-04-28 16:22 -8.33977 -35.25037 15438 ft 334 kts 228°
2026-04-28 16:22 -8.35464 -35.26868 16009 ft 338 kts 229°
2026-04-28 16:22 -8.36964 -35.28722 16563 ft 343 kts 229°
2026-04-28 16:23 -8.38470 -35.30590 16908 ft 355 kts 229°
2026-04-28 16:23 -8.40070 -35.32576 17050 ft 372 kts 229°
2026-04-28 16:23 -8.41718 -35.34629 17443 ft 380 kts 229°
2026-04-28 16:23 -8.43389 -35.36714 17980 ft 383 kts 229°
2026-04-28 16:24 -8.45073 -35.38816 18490 ft 386 kts 229°
2026-04-28 16:24 -8.46767 -35.40933 18930 ft 390 kts 229°
2026-04-28 16:24 -8.48482 -35.43075 19364 ft 393 kts 229°
2026-04-28 16:24 -8.50208 -35.45231 19818 ft 397 kts 228°
2026-04-28 16:25 -8.51951 -35.47409 20259 ft 400 kts 228°
2026-04-28 16:25 -8.53708 -35.49604 20678 ft 404 kts 228°
2026-04-28 16:25 -8.54881 -35.51069 20959 ft 406 kts 228°
2026-04-28 16:25 -8.57271 -35.54056 21555 ft 410 kts 228°
2026-04-28 16:26 -8.59074 -35.56310 22029 ft 414 kts 228°
2026-04-28 16:26 -8.60891 -35.58582 22446 ft 418 kts 228°
2026-04-28 16:26 -8.62726 -35.60876 22873 ft 421 kts 227°
2026-04-28 16:26 -8.64573 -35.63186 23296 ft 424 kts 227°
2026-04-28 16:27 -8.66413 -35.65488 23673 ft 427 kts 227°
2026-04-28 16:27 -8.68282 -35.67827 24050 ft 429 kts 228°
2026-04-28 16:27 -8.72038 -35.72529 24864 ft 430 kts 228°
2026-04-28 16:28 -8.73919 -35.74884 25246 ft 431 kts 228°
2026-04-28 16:28 -8.75806 -35.77247 25620 ft 433 kts 228°
2026-04-28 16:28 -8.77699 -35.79617 25988 ft 434 kts 228°
2026-04-28 16:28 -8.79598 -35.81996 26371 ft 435 kts 228°
2026-04-28 16:29 -8.83414 -35.86776 27157 ft 438 kts 228°
2026-04-28 16:29 -8.87252 -35.91586 27882 ft 440 kts 229°
2026-04-28 16:30 -8.89183 -35.94007 28231 ft 442 kts 229°
2026-04-28 16:30 -8.91109 -35.96423 28599 ft 442 kts 229°
2026-04-28 16:30 -8.93040 -35.98846 28977 ft 442 kts 229°
2026-04-28 16:30 -8.94976 -36.01274 29293 ft 444 kts 229°
2026-04-28 16:31 -8.96918 -36.03710 29583 ft 446 kts 229°
2026-04-28 16:31 -8.98870 -36.06159 29885 ft 448 kts 229°
2026-04-28 16:31 -9.00824 -36.08613 30182 ft 449 kts 229°
2026-04-28 16:31 -9.02787 -36.11077 30443 ft 450 kts 229°
2026-04-28 16:32 -9.04756 -36.13547 30706 ft 451 kts 229°
2026-04-28 16:32 -9.08792 -36.18437 31211 ft 454 kts 227°
2026-04-28 16:32 -9.10812 -36.20843 31460 ft 455 kts 227°
2026-04-28 16:33 -9.12893 -36.23320 31719 ft 456 kts 227°
2026-04-28 16:33 -9.14252 -36.24941 31882 ft 457 kts 227°
2026-04-28 16:33 -9.16979 -36.28201 32170 ft 459 kts 228°
2026-04-28 16:33 -9.19044 -36.30677 32380 ft 460 kts 228°
2026-04-28 16:34 -9.21114 -36.33162 32613 ft 461 kts 228°
2026-04-28 16:34 -9.23188 -36.35654 32853 ft 463 kts 228°
2026-04-28 16:34 -9.25261 -36.38147 33056 ft 464 kts 228°
2026-04-28 16:34 -9.27344 -36.40653 33263 ft 465 kts 228°
2026-04-28 16:35 -9.29430 -36.43161 33464 ft 467 kts 228°
2026-04-28 16:35 -9.31525 -36.45682 33663 ft 468 kts 228°
2026-04-28 16:35 -9.33621 -36.48203 33858 ft 469 kts 228°
2026-04-28 16:35 -9.35720 -36.50729 34040 ft 470 kts 228°
2026-04-28 16:36 -9.37809 -36.53243 34187 ft 471 kts 228°
2026-04-28 16:36 -9.39921 -36.55786 34334 ft 473 kts 228°
2026-04-28 16:36 -9.42042 -36.58340 34489 ft 474 kts 228°
2026-04-28 16:36 -9.44165 -36.60896 34674 ft 474 kts 228°
2026-04-28 16:37 -9.46285 -36.63450 34902 ft 473 kts 229°
2026-04-28 16:37 -9.48402 -36.66002 35086 ft 473 kts 228°
2026-04-28 16:37 -9.50519 -36.68553 35248 ft 474 kts 229°
2026-04-28 16:38 -9.54755 -36.73660 35688 ft 473 kts 229°
2026-04-28 16:38 -9.56872 -36.76212 35860 ft 473 kts 229°
2026-04-28 16:38 -9.58988 -36.78764 36046 ft 472 kts 229°
2026-04-28 16:38 -9.61103 -36.81314 36161 ft 474 kts 229°
2026-04-28 16:39 -9.63218 -36.83868 36386 ft 472 kts 229°
2026-04-28 16:39 -9.65308 -36.86390 36599 ft 471 kts 229°
2026-04-28 16:39 -9.67420 -36.88939 36676 ft 473 kts 229°
2026-04-28 16:39 -9.69533 -36.91489 36931 ft 470 kts 229°
2026-04-28 16:40 -9.71633 -36.94026 37163 ft 469 kts 229°
2026-04-28 16:40 -9.73731 -36.96561 37270 ft 470 kts 229°
2026-04-28 16:40 -9.75840 -36.99109 37461 ft 469 kts 230°
2026-04-28 16:40 -9.77933 -37.01638 37615 ft 470 kts 230°
2026-04-28 16:41 -9.80035 -37.04180 37707 ft 471 kts 230°
2026-04-28 16:41 -9.82139 -37.06725 37897 ft 469 kts 230°
2026-04-28 16:41 -9.84230 -37.09253 38014 ft 468 kts 230°
2026-04-28 16:42 -9.88443 -37.14303 37999 ft 468 kts 225°
2026-04-28 16:42 -9.93480 -37.18406 38008 ft 463 kts 215°
2026-04-28 16:43 -9.98728 -37.22160 38009 ft 460 kts 214°
2026-04-28 16:43 -10.03918 -37.25943 38010 ft 458 kts 215°
2026-04-28 16:44 -10.09019 -37.29748 38012 ft 457 kts 216°
2026-04-28 16:44 -10.14137 -37.33595 38008 ft 458 kts 216°
2026-04-28 16:45 -10.19256 -37.37444 38014 ft 458 kts 216°
2026-04-28 16:45 -10.24396 -37.41307 38015 ft 460 kts 216°
2026-04-28 16:46 -10.29551 -37.45183 38008 ft 462 kts 216°
2026-04-28 16:46 -10.34696 -37.49050 38009 ft 463 kts 216°
2026-04-28 16:47 -10.39880 -37.52950 38017 ft 464 kts 216°
2026-04-28 16:47 -10.45078 -37.56865 38007 ft 466 kts 216°
2026-04-28 16:48 -10.50292 -37.60789 38009 ft 466 kts 215°
2026-04-28 16:48 -10.55503 -37.64719 38014 ft 465 kts 215°
2026-04-28 16:49 -10.60700 -37.68650 38003 ft 464 kts 216°
2026-04-28 16:49 -10.65836 -37.72540 37997 ft 463 kts 216°
2026-04-28 16:50 -10.70985 -37.76438 38011 ft 461 kts 216°
2026-04-28 16:50 -10.76117 -37.80321 38011 ft 459 kts 216°
2026-04-28 16:51 -10.81230 -37.84192 37997 ft 457 kts 215°
2026-04-28 16:51 -10.86319 -37.88051 38009 ft 455 kts 215°
2026-04-28 16:52 -10.91388 -37.91899 38011 ft 454 kts 216°
2026-04-28 16:52 -10.96422 -37.95715 38005 ft 454 kts 216°
2026-04-28 16:53 -11.01485 -37.99554 38019 ft 453 kts 215°
2026-04-28 16:53 -11.06540 -38.03392 38014 ft 453 kts 216°
2026-04-28 16:54 -11.11604 -38.07240 38008 ft 454 kts 216°
2026-04-28 16:54 -11.16668 -38.11088 38017 ft 454 kts 216°
2026-04-28 16:55 -11.21706 -38.14916 38012 ft 455 kts 216°
2026-04-28 16:55 -11.26787 -38.18780 38009 ft 455 kts 216°
2026-04-28 16:56 -11.31864 -38.22646 38019 ft 455 kts 216°
2026-04-28 16:56 -11.36938 -38.26509 38018 ft 456 kts 216°
2026-04-28 16:57 -11.42025 -38.30384 38010 ft 456 kts 216°
2026-04-28 16:57 -11.47077 -38.34232 38022 ft 456 kts 216°
2026-04-28 16:58 -11.52157 -38.38115 38015 ft 455 kts 216°
2026-04-28 16:58 -11.57209 -38.42004 38024 ft 455 kts 217°
2026-04-28 16:59 -11.62262 -38.45895 38027 ft 454 kts 216°
2026-04-28 16:59 -11.67280 -38.49757 38021 ft 454 kts 216°
2026-04-28 17:00 -11.72333 -38.53640 38021 ft 453 kts 216°
2026-04-28 17:00 -11.76535 -38.56840 38029 ft 453 kts 216°
2026-04-28 17:01 -11.81578 -38.60678 38025 ft 452 kts 216°
2026-04-28 17:01 -11.86617 -38.64519 38027 ft 452 kts 217°
2026-04-28 17:02 -11.91650 -38.68361 38031 ft 451 kts 216°
2026-04-28 17:02 -11.96671 -38.72197 38030 ft 451 kts 216°
2026-04-28 17:03 -12.04215 -38.77963 38029 ft 451 kts 216°
2026-04-28 17:03 -12.09247 -38.81810 38032 ft 451 kts 217°
2026-04-28 17:04 -12.16761 -38.87560 38031 ft 452 kts 217°
2026-04-28 17:05 -12.24322 -38.93350 38036 ft 453 kts 216°
2026-04-28 17:06 -12.31866 -38.99130 38037 ft 453 kts 217°
2026-04-28 17:06 -12.39458 -39.04953 38030 ft 454 kts 217°
2026-04-28 17:07 -12.44506 -39.08827 38034 ft 454 kts 217°
2026-04-28 17:07 -12.49523 -39.12679 38037 ft 454 kts 217°
2026-04-28 17:08 -12.54579 -39.16563 38036 ft 454 kts 217°
2026-04-28 17:08 -12.59631 -39.20446 38030 ft 453 kts 217°
2026-04-28 17:09 -12.64665 -39.24317 38037 ft 453 kts 217°
2026-04-28 17:09 -12.69675 -39.28240 38042 ft 453 kts 218°
2026-04-28 17:10 -12.74648 -39.32195 38037 ft 452 kts 218°
2026-04-28 17:10 -12.79623 -39.36148 38038 ft 452 kts 218°
2026-04-28 17:11 -12.84589 -39.40087 38039 ft 452 kts 218°
2026-04-28 17:11 -12.89529 -39.44004 38044 ft 451 kts 218°
2026-04-28 17:12 -12.94499 -39.47946 38043 ft 451 kts 218°
2026-04-28 17:12 -12.99465 -39.51888 38051 ft 451 kts 218°
2026-04-28 17:13 -13.04430 -39.55830 38065 ft 451 kts 218°
2026-04-28 17:13 -13.09388 -39.59770 38052 ft 451 kts 218°
2026-04-28 17:14 -13.14345 -39.63711 38053 ft 451 kts 218°
2026-04-28 17:14 -13.19302 -39.67655 38058 ft 450 kts 218°
2026-04-28 17:15 -13.24258 -39.71600 38058 ft 450 kts 218°
2026-04-28 17:15 -13.29208 -39.75539 38076 ft 450 kts 218°